{"data":{"norad_id":67205,"intl_designator":"2025-304P","name":"STARLINK-36197","alt_names":[],"object_type":"PAYLOAD","status":"ACTIVE","operator":null,"country":"US","launch_date":"2025-12-17","launch_site_code":"AFWTR","launch_vehicle":null,"mission":null,"orbit_class":"UNKNOWN","rcs_meters":null,"size_class":null,"mass_kg":null,"dimensions":null,"purposes":["comms"],"wikipedia_slug":null,"has_3d_model":false,"image_url":null,"decayed_at":null,"tle_current":{"epoch":"2026-05-24T23:09:32.798016Z","epoch_age_seconds":77789,"freshness":"FRESH","line1":"1 67205U 25304P   26144.96496294  .00004057  00000+0  34753-3 0  9990","line2":"2 67205  70.0018 341.9927 0002658 264.5190  95.5666 14.98339873 25280","mean_motion":14.98339873,"eccentricity":0.0002658,"inclination_deg":70.0018,"raan_deg":341.9927,"arg_perigee_deg":264.519,"mean_anomaly_deg":95.5666,"bstar":0.00034753,"rev_number":2528,"period_min":96.106365848545,"perigee_km":570.17800651879,"apogee_km":573.8727128292,"semimajor_km":6950.162359674,"source":"CELESTRAK","updated_at":"2026-05-25T13:38:21.510462Z"}}}